This demonstration page uses our WeatherBlox Daily Observations layout. Learn more.

Left ArrowRight Arrow

41.86663, -103.66717

Hourly Observations for July 14, 2017

Temp ( °F °C ) Dew Point ( °F °C ) Humidity (%) Winds ( mph kmh ) Pressure ( in mb ) Visibility ( mi km ) Precip ( " mm )
12:53 am 00:53 Clear 66 18.9 58 14.4 75 75 E 8 13 30.08 1019 10 16 0.00 0.00
1:53 am 01:53 Clear 64 17.8 58 14.4 81 81 E 6 9 30.08 1019 10 16 0.00 0.00
2:53 am 02:53 Clear 64 17.8 58 14.4 81 81 E 7 11 30.07 1018 10 16 0.00 0.00
3:53 am 03:53 Clear 63 17.2 58 14.4 84 84 E 8 13 30.07 1018 10 16 0.00 0.00
4:53 am 04:53 Clear 61 16.1 57 13.9 87 87 undefined N/A 30.08 1019 10 16 0.00 0.00
5:53 am 05:53 Sunny 61 16.1 58 14.4 90 90 ESE 8 13 30.09 1019 9 14 0.00 0.00
6:53 am 06:53 Sunny 65 18.3 60 15.6 84 84 ESE 8 13 30.10 1019 10 16 0.00 0.00
7:53 am 07:53 Sunny 69 20.6 61 16.1 76 76 ESE 10 17 30.11 1020 10 16 0.00 0.00
8:53 am 08:53 Sunny 75 23.9 63 17.2 66 66 undefined N/A 30.12 1020 10 16 0.00 0.00
9:53 am 09:53 Sunny 80 26.7 62 16.7 54 54 SE 12 19 30.11 1020 10 16 0.00 0.00
10:53 am 10:53 Sunny 85 29.4 59 15 42 42 ESE 13 20 30.10 1019 10 16 0.00 0.00
11:53 am 11:53 Sunny 88 31.1 51 10.6 28 28 SE 10 17 30.09 1019 10 16 0.00 0.00
12:53 pm 12:53 Sunny 91 32.8 47 8.3 22 22 S 13 20 30.08 1019 10 16 0.00 0.00
1:53 pm 13:53 Sunny 93 33.9 48 8.9 21 21 SE 16 26 30.07 1018 10 16 0.00 0.00
2:53 pm 14:53 Sunny 93 33.9 45 7.2 19 19 E 15 24 30.06 1018 10 16 0.00 0.00
3:53 pm 15:53 Sunny 94 34.4 45 7.2 18 18 SE 8 13 30.04 1017 10 16 0.00 0.00
4:53 pm 16:53 Sunny 94 34.4 45 7.2 18 18 E 14 22 30.03 1017 10 16 0.00 0.00
5:53 pm 17:53 Sunny 92 33.3 46 7.8 21 21 SE 13 20 30.03 1017 10 16 0.00 0.00
6:53 pm 18:53 Sunny 89 31.7 54 12.2 30 30 E 14 22 30.02 1017 10 16 0.00 0.00
7:53 pm 19:53 Sunny 83 28.3 51 10.6 33 33 ESE 10 17 30.03 1017 10 16 0.00 0.00
8:53 pm 20:53 Clear 75 23.9 54 12.2 48 48 ESE 9 15 30.06 1018 10 16 0.00 0.00
9:53 pm 21:53 Clear 72 22.2 54 12.2 53 53 E 8 13 30.09 1019 10 16 0.00 0.00
10:53 pm 22:53 Clear 70 21.1 55 12.8 59 59 E 8 13 30.10 1019 10 16 0.00 0.00
11:53 pm 23:53 Clear 70 21.1 56 13.3 61 61 E 9 15 30.11 1020 10 16 0.00 0.00

Powered by AerisWeather